FW4468 Weather Reports


time (UTC)temp
C
wind
direction
speed
KPH
gust
KPH
rain 1hr
cm
rain 24hr
cm
rain mn
cm
humidity
%
barometer
mb
20240614124515 6 142 0.0 0.0 0.00 0.00 0.00 72 1019.6
20240614123015 6 142 0.0 0.0 0.00 0.00 0.00 71 1019.5
20240614121517 7 142 0.0 0.0 0.00 0.00 0.00 70 1019.5
20240614120006 7 142 0.0 1.6 0.00 0.00 0.00 71 1019.6
20240614114512 7 140 0.0 1.6 0.00 0.00 0.00 70 1019.4
20240614113006 7 140 0.0 0.0 0.00 0.00 0.00 70 1019.5
20240614111502 7 140 0.0 1.6 0.00 0.00 0.00 69 1019.6
20240614110104 7 140 0.0 0.0 0.00 0.00 0.00 70 1019.5
20240614104603 8 140 0.0 3.2 0.00 0.00 0.00 69 1019.4
20240614103057 8 140 0.0 0.0 0.00 0.00 0.00 69 1019.3
20240614101604 8 140 0.0 3.2 0.00 0.00 0.00 68 1019.3
20240614100104 8 140 0.0 1.6 0.00 0.00 0.00 68 1019.3
20240614094606 9 140 0.0 3.2 0.00 0.00 0.00 67 1019.3
20240614093057 9 140 0.0 3.2 0.00 0.00 0.00 66 1019.1
20240614091550 9 142 1.6 6.4 0.00 0.00 0.00 66 1019.0
20240614090048 9 98 0.0 3.2 0.00 0.00 0.00 66 1018.9
20240614084545 9 105 0.0 3.2 0.00 0.00 0.00 66 1019.0
20240614083103 8 59 0.0 3.2 0.00 0.00 0.00 66 1018.7
20240614081542 8 59 0.0 3.2 0.00 0.00 0.00 66 1018.7
20240614080040 8 59 0.0 0.0 0.00 0.00 0.00 66 1018.6
20240614074538 9 59 0.0 1.6 0.00 0.00 0.00 64 1018.5
20240614073036 9 59 0.0 1.6 0.00 0.00 0.00 63 1018.7
20240614071539 10 59 0.0 1.6 0.00 0.00 0.00 62 1018.5
20240614070030 10 59 0.0 0.0 0.00 0.00 0.00 61 1018.4
20240614064545 10 59 0.0 0.0 0.00 0.00 0.00 60 1018.1
20240614063130 10 59 0.0 1.6 0.00 0.00 0.00 59 1017.9
20240614061529 11 59 0.0 1.6 0.00 0.00 0.00 56 1017.8
20240614060032 11 59 0.0 1.6 0.00 0.00 0.00 55 1017.8
20240614054535 12 59 0.0 3.2 0.00 0.00 0.00 54 1017.7
20240614053037 12 59 0.0 3.2 0.00 0.00 0.00 52 1017.5
20240614051543 12 58 1.6 4.8 0.00 0.00 0.00 51 1017.5
20240614050026 12 14 0.0 4.8 0.00 0.00 0.00 50 1017.4
20240614044525 12 344 0.0 8.0 0.00 0.00 0.00 49 1017.2
20240614043026 13 327 1.6 6.4 0.00 0.00 0.00 48 1016.7
20240614041527 13 82 3.2 8.0 0.00 0.00 0.00 47 1016.6
20240614040023 14 51 1.6 8.0 0.00 0.00 0.00 45 1016.4
20240614034523 15 38 0.0 6.4 0.00 0.00 0.00 45 1016.5
20240614033023 16 63 1.6 4.8 0.00 0.00 0.00 45 1016.4
20240614031546 16 360 0.0 4.8 0.00 0.00 0.00 43 1016.4
20240614030021 17 55 1.6 6.4 0.00 0.00 0.00 40 1016.3
20240614024523 17 51 1.6 14.5 0.00 0.00 0.00 39 1016.3
20240614023019 17 327 3.2 17.7 0.00 0.00 0.00 38 1016.2
20240614021522 17 42 3.2 11.3 0.00 0.00 0.00 37 1016.3
20240614020017 17 301 3.2 9.7 0.00 0.00 0.00 37 1016.4
20240614014518 17 28 4.8 17.7 0.00 0.00 0.00 38 1016.6
20240614013027 18 56 6.4 16.1 0.00 0.00 0.00 38 1016.6
20240614011516 18 57 3.2 17.7 0.00 0.00 0.00 35 1016.6
20240614010014 18 74 4.8 12.9 0.00 0.00 0.00 32 1016.4
20240614004515 19 67 3.2 16.1 0.00 0.00 0.00 30 1016.4
20240614003012 20 83 4.8 14.5 0.00 0.00 0.00 34 1016.3
20240614001512 20 64 4.8 19.3 0.00 0.00 0.00 37 1016.3
20240614000010 20 44 4.8 12.9 0.00 0.00 0.00 36 1016.3
20240613234509 20 229 3.2 11.3 0.00 0.00 0.00 38 1016.3
20240613233008 21 69 1.6 8.0 0.00 0.00 0.00 36 1016.3
20240613231508 20 339 1.6 6.4 0.00 0.00 0.00 35 1016.2
20240613230006 21 26 1.6 9.7 0.00 0.00 0.00 36 1016.2
20240613224505 20 80 1.6 12.9 0.00 0.00 0.00 35 1016.3
20240613223006 20 360 3.2 14.5 0.00 0.00 0.00 35 1016.5
20240613221502 20 61 1.6 6.4 0.00 0.00 0.00 37 1016.5
20240613220003 21 57 3.2 6.4 0.00 0.00 0.00 33 1016.6
20240613214602 21 126 1.6 11.3 0.00 0.00 0.00 34 1016.6
20240613213110 21 174 3.2 9.7 0.00 0.00 0.00 30 1016.7
20240613211558 21 263 1.6 9.7 0.00 0.00 0.00 33 1016.8
20240613210055 21 199 1.6 6.4 0.00 0.00 0.00 31 1017.0
20240613204551 20 360 3.2 8.0 0.00 0.00 0.00 30 1017.2
20240613203048 20 340 3.2 14.5 0.00 0.00 0.00 33 1017.3
20240613201645 20 225 3.2 9.7 0.00 0.00 0.00 31 1017.3
20240613200044 20 36 1.6 6.4 0.00 0.00 0.00 33 1017.6
20240613194543 19 323 0.0 9.7 0.00 0.00 0.00 33 1017.7
20240613193041 18 24 1.6 11.3 0.00 0.00 0.00 33 1017.8
20240613191539 18 68 1.6 6.4 0.00 0.00 0.00 40 1018.1
20240613190035 18 34 3.2 9.7 0.00 0.00 0.00 41 1018.1
20240613184536 18 348 3.2 11.3 0.00 0.00 0.00 43 1018.1
20240613183031 17 319 1.6 8.0 0.00 0.00 0.00 45 1018.1
20240613181531 17 312 4.8 16.1 0.00 0.00 0.00 48 1018.1
20240613180026 17 66 3.2 11.3 0.00 0.00 0.00 46 1018.4
20240613174525 17 80 3.2 6.4 0.00 0.00 0.00 46 1018.5
20240613173025 17 96 4.8 14.5 0.00 0.00 0.00 46 1018.7
20240613171518 16 136 1.6 9.7 0.00 0.00 0.00 49 1018.9
20240613170016 16 333 1.6 9.7 0.00 0.00 0.00 53 1018.9
20240613164511 15 319 1.6 8.0 0.00 0.00 0.00 57 1018.9
20240613163016 15 236 3.2 9.7 0.00 0.00 0.00 60 1019.0
20240613161503 14 340 1.6 4.8 0.00 0.00 0.00 62 1019.0
20240613160106 13 225 0.0 8.0 0.00 0.00 0.00 65 1019.0
20240613154556 12 199 0.0 8.0 0.00 0.00 0.00 68 1019.1
20240613153120 11 230 0.0 4.8 0.00 0.00 0.00 71 1019.1
20240613151553 10 264 1.6 4.8 0.00 0.00 0.00 73 1019.2
20240613150042 10 285 1.6 6.4 0.00 0.00 0.00 74 1019.3
20240613144539 8 292 0.0 4.8 0.00 0.00 0.00 77 1019.3
20240613143040 8 281 1.6 4.8 0.00 0.00 0.00 80 1019.5
20240613141539 7 301 1.6 4.8 0.00 0.00 0.00 84 1019.4
20240613140037 7 69 0.0 1.6 0.00 0.00 0.00 84 1019.2
20240613134536 6 69 0.0 1.6 0.00 0.00 0.00 83 1019.4
20240613133034 6 69 0.0 0.0 0.00 0.00 0.00 82 1019.3
20240613131533 5 69 0.0 0.0 0.00 0.00 0.00 80 1019.4
20240613130034 5 69 0.0 1.6 0.00 0.00 0.00 77 1019.5